DW2802 Ogijares ES current weather conditions

sailwx.info

Wind from 117

Air temperature 24.4° C
Dewpoint 14.2° C

Last reported at 2017-Aug-18 07:02 UTC.
Time now 2017-Aug-18 07:13 UTC

Location: N 37°07' W 003°36'.
View on Google Maps.

See reports from other nearby stations

  
Tides and Currents Weather Stations Pressure Air Temp Water Temp Dewpoint Dewpoint Depression Visibility Wind Speed Wind Dir Waves Ship Positions
date/time (UTC)wind fromknots sea level pressurealtimeterstation pressurevisibilityair tempwater tempwave heightnotes
2017-Aug-18 07:02 117 24.4
2017-Aug-18 06:47 117 23.3
2017-Aug-18 06:31 125 22.2
2017-Aug-18 06:16 125 21.7
2017-Aug-18 06:01 115 21.1
2017-Aug-18 05:46 100 21.1
2017-Aug-18 05:32 081 21.1
2017-Aug-18 05:17 053 21.7
2017-Aug-18 05:01 053 21.7
2017-Aug-18 04:46 052 21.7
2017-Aug-18 04:31 052 21.7
2017-Aug-18 04:16 051 21.7
2017-Aug-18 04:01 051 22.2
2017-Aug-18 03:46 051 22.2
2017-Aug-18 03:33 051 22.2
2017-Aug-18 03:24 051 22.2
2017-Aug-18 03:01 051 22.8
2017-Aug-18 02:46 051 22.8
2017-Aug-18 02:31 051 22.8
2017-Aug-18 02:16 051 22.8
2017-Aug-18 02:01 051 22.8
2017-Aug-18 01:46 051 22.8
2017-Aug-18 01:31 051 23.3
2017-Aug-18 01:16 051 23.3
2017-Aug-18 01:01 051 23.3
2017-Aug-18 00:46 051 23.3
2017-Aug-18 00:31 049 23.3
2017-Aug-18 00:16 049 23.9
2017-Aug-18 00:01 049 23.9
2017-Aug-17 23:46 040 23.9
2017-Aug-17 23:31 040 24.4
2017-Aug-17 23:16 040 24.4
2017-Aug-17 23:01 040 24.4
2017-Aug-17 22:46 040 25.0
2017-Aug-17 22:31 040 25.6
2017-Aug-17 22:15 040 26.1
2017-Aug-17 22:00 040 26.7
2017-Aug-17 21:45 040 27.2
2017-Aug-17 21:31 040 27.2
2017-Aug-17 21:15 040 27.8
2017-Aug-17 21:01 040 28.3
2017-Aug-17 20:46 113 28.3
2017-Aug-17 20:30 156 28.3
2017-Aug-17 20:15 169 28.3
2017-Aug-17 20:00 184 28.9
2017-Aug-17 19:45 136 28.9
2017-Aug-17 19:30 161 29.4
2017-Aug-17 19:15 176 29.4
2017-Aug-17 19:00 165 30.0
2017-Aug-17 18:45 157 30.0
2017-Aug-17 18:30 170 30.6
2017-Aug-17 18:15 146 31.1
2017-Aug-17 18:00 145 31.7
2017-Aug-17 17:45 145 32.2
2017-Aug-17 17:30 157 32.8
2017-Aug-17 17:15 178 33.3
2017-Aug-17 17:00 158 33.3
2017-Aug-17 16:45 152 33.3
2017-Aug-17 16:30 190 33.9
2017-Aug-17 16:15 205 33.9
2017-Aug-17 16:00 148 33.9
2017-Aug-17 15:45 154 33.9
2017-Aug-17 15:30 163 33.9
2017-Aug-17 15:15 160 33.9
2017-Aug-17 15:00 132 33.9
2017-Aug-17 14:45 186 33.9
2017-Aug-17 14:30 171 33.9
2017-Aug-17 14:15 202 33.9
2017-Aug-17 14:00 178 34.4
2017-Aug-17 13:45 184 33.9
2017-Aug-17 13:30 166 33.9
2017-Aug-17 13:15 149 33.9
2017-Aug-17 13:00 219 33.3
2017-Aug-17 12:45 157 33.3
2017-Aug-17 12:30 142 32.8
2017-Aug-17 12:15 182 32.2
2017-Aug-17 11:59 159 32.8
2017-Aug-17 11:44 215 32.8
2017-Aug-17 11:29 192 32.8
2017-Aug-17 11:14 246 32.2
2017-Aug-17 10:59 265 32.8
2017-Aug-17 10:44 309 31.7
2017-Aug-17 10:29 237 31.7
2017-Aug-17 10:14 235 31.1
2017-Aug-17 09:59 233 30.0
2017-Aug-17 09:44 189 30.0
2017-Aug-17 09:29 189 29.4
2017-Aug-17 09:14 189 28.9
2017-Aug-17 08:59 189 28.3
2017-Aug-17 08:44 189 27.2
2017-Aug-17 08:29 189 26.7
2017-Aug-17 08:13 189 26.7
2017-Aug-17 07:58 189 26.7
2017-Aug-17 07:43 189 26.1
2017-Aug-17 07:28 189 24.4
2017-Aug-17 07:13 189 24.4
2017-Aug-17 06:58 189 24.4
2017-Aug-17 06:43 189 23.3
2017-Aug-17 06:28 189 22.2
2017-Aug-17 06:13 189 21.7
2017-Aug-17 05:58 189 21.7
2017-Aug-17 05:43 189 22.2
2017-Aug-17 05:28 189 21.7
2017-Aug-17 05:13 189 22.2
2017-Aug-17 04:58 189 22.2
2017-Aug-17 04:43 189 22.2
2017-Aug-17 04:28 189 22.2
2017-Aug-17 04:13 189 22.2
2017-Aug-17 03:58 189 22.8
2017-Aug-17 03:43 189 22.2
2017-Aug-17 03:28 189 22.2
2017-Aug-17 03:15 189 22.8
2017-Aug-17 02:58 189 22.8
2017-Aug-17 02:43 190 23.3
2017-Aug-17 02:28 190 22.8
2017-Aug-17 02:13 190 23.3
2017-Aug-17 01:58 190 23.3
2017-Aug-17 01:43 190 23.3
2017-Aug-17 01:28 190 23.3
2017-Aug-17 01:13 203 23.9
2017-Aug-17 00:57 216 23.9
2017-Aug-17 00:42 216 23.9
2017-Aug-17 00:28 218 23.9
2017-Aug-17 00:13 218 24.4
2017-Aug-17 00:04 218 24.4
2017-Aug-16 23:49 219 23.9
2017-Aug-16 23:40 219 23.9
2017-Aug-16 23:02 219 25.6
2017-Aug-16 22:50 219 25.6
2017-Aug-16 22:27 220 25.0
2017-Aug-16 22:12 223 26.1
2017-Aug-16 21:57 223 26.1
2017-Aug-16 21:42 223 26.1
2017-Aug-16 21:27 225 26.7
2017-Aug-16 21:12 225 26.7
2017-Aug-16 20:57 226 27.2
2017-Aug-16 20:42 238 27.8
2017-Aug-16 20:27 250 28.3
2017-Aug-16 20:12 292 29.4
2017-Aug-16 19:57 292 30.0
2017-Aug-16 19:42 292 30.6
2017-Aug-16 19:27 292 31.7
2017-Aug-16 19:12 292 32.2
2017-Aug-16 18:57 290 32.2
2017-Aug-16 18:42 296 33.3
2017-Aug-16 18:27 292 33.3
2017-Aug-16 18:12 294 33.9
2017-Aug-16 17:57 290 34.4
2017-Aug-16 17:42 294 34.4
2017-Aug-16 17:27 325 35.0
2017-Aug-16 17:12 300 35.0
2017-Aug-16 16:57 271 35.0
2017-Aug-16 16:42 300 35.6
2017-Aug-16 16:27 281 35.0
2017-Aug-16 16:12 280 35.6
2017-Aug-16 15:57 321 35.6
2017-Aug-16 15:42 331 35.6
2017-Aug-16 15:27 335 35.6
2017-Aug-16 15:12 290 35.6
2017-Aug-16 14:57 269 35.0
2017-Aug-16 14:42 249 35.6
2017-Aug-16 14:27 321 35.0
2017-Aug-16 14:11 282 35.0
2017-Aug-16 13:56 333 35.0
2017-Aug-16 13:42 283 34.4
2017-Aug-16 13:26 321 33.9
2017-Aug-16 13:11 306 33.9
2017-Aug-16 12:56 331 33.3
2017-Aug-16 12:41 281 33.3
2017-Aug-16 12:26 314 32.8
2017-Aug-16 12:11 304 32.8
2017-Aug-16 11:57 331 32.2
2017-Aug-16 11:41 263 32.8
2017-Aug-16 11:26 301 31.7
2017-Aug-16 11:11 327 31.1
2017-Aug-16 10:56 303 31.1
2017-Aug-16 10:41 316 30.6
2017-Aug-16 10:26 317 30.0
2017-Aug-16 10:11 333 29.4
2017-Aug-16 09:56 334 28.9
2017-Aug-16 09:41 290 28.9
2017-Aug-16 09:26 284 28.9
2017-Aug-16 09:11 245 27.8
2017-Aug-16 08:56 244 26.7
2017-Aug-16 08:40 244 26.7
2017-Aug-16 08:26 244 26.7
2017-Aug-16 08:10 244 25.6
2017-Aug-16 07:55 244 25.6
2017-Aug-16 07:40 244 25.0
2017-Aug-16 07:25 244 24.4
2017-Aug-16 07:10 244 23.9